Regional Weather Roundup
Issued by NWS

Home | Current Version | Previous Version | Text Only | Print | Product List | Glossary Off
Versions: 1 2 3 4 5 6 7 8 9 10 11 12 13 14 15 16 17 18 19 20 21 22 23 24 25 26 27 28 29 30 31 32 33 34 35 36 37 38 39 40 41 42 43 44 45 46 47 48 49 50

000
ASUS43 KOAX 311402
RWRNE

WEATHER ROUNDUP FOR NEBRASKA
NATIONAL WEATHER SERVICE OMAHA NE
900 AM CDT THU JUL 31 2014

NOTES: SATELLITE DATA IS BEING USED TO AUGMENT CLOUD COVER ABOVE
       12000 FEET.
       "FAIR" INDICATES FEW OR NO CLOUDS BELOW 12,000 FEET WITH NO
       SIGNIFICANT WEATHER AND/OR OBSTRUCTIONS TO VISIBILITY.

  * THESE STATIONS DO NOT REPORT WEATHER SUCH AS RAIN...SNOW OR FOG.

NEZ001>004-019>022-054>056-311500-
NEBRASKA PANHANDLE

CITY           SKY/WX    TMP DP  RH WIND       PRES   REMARKS
SCOTTSBLUFF    SUNNY     64  57  78 W3        30.22S
ALLIANCE       SUNNY     64  53  67 NW3       30.21R
CHADRON        SUNNY     62  51  67 SW3       30.19S
SIDNEY         SUNNY     66  56  70 NW7       30.24S
$$

NEZ057>060-069>072-079>082-311500-
SOUTHWEST NEBRASKA

CITY           SKY/WX    TMP DP  RH WIND       PRES   REMARKS
NORTH PLATTE   MOSUNNY   65  59  81 W9        30.15S
IMPERIAL       MOSUNNY   65  59  81 W6        30.20S
LEXINGTON      MOSUNNY   67  62  81 SW3       30.14S
MCCOOK         MOSUNNY   66  60  81 W8        30.18R
OGALLALA       MOSUNNY   61  58  92 W8        30.18F
$$

NEZ005>010-023>029-035>040-094-311500-
NORTH CENTRAL NEBRASKA

CITY           SKY/WX    TMP DP  RH WIND       PRES   REMARKS
VALENTINE      SUNNY     70  55  59 NW10      30.11R
AINSWORTH      SUNNY     66  54  63 NW10      30.10R
BROKEN BOW     SUNNY     68  62  81 W5        30.10S
O`NEILL        MOSUNNY   67  60  77 SW8       30.07S
ORD            MOSUNNY   67  59  75 S6        30.08S
THEDFORD       SUNNY     70  58  64 NW7       30.14R
$$

NEZ041-046>049-061>064-073>077-083>087-311500-
SOUTH CENTRAL NEBRASKA

CITY           SKY/WX    TMP DP  RH WIND       PRES   REMARKS
GRAND ISLAND   SUNNY     72  55  55 S12       30.11F
AURORA         SUNNY     69  59  70 SW7       30.11F
HASTINGS       MOSUNNY   70  54  56 S6        30.13R
HEBRON         MOSUNNY   64  55  72 CALM      30.14S
HOLDREGE       MOSUNNY   67  60  77 W6        30.14S
KEARNEY *      MOSUNNY   66  55  68 SW7       30.13S
YORK           SUNNY     68  59  73 SW7       30.12S
$$

NEZ011>018-030>034-042>045-311500-
NORTHEAST NEBRASKA

CITY           SKY/WX    TMP DP  RH WIND       PRES   REMARKS
NORFOLK        CLOUDY    63  58  83 E5        30.10R
ALBION         SUNNY     67  56  66 S6        30.09S
BLAIR          SUNNY     67  56  68 CALM      30.11S
COLUMBUS *     MOSUNNY   59  54  82 S7        30.10F
FREMONT        SUNNY     70  59  67 CALM      30.11F
TEKAMAH        SUNNY     66  59  78 VRB3      30.11R
WAYNE          PTSUNNY   63  61  92 CALM      30.11S
$$

NEZ050>053-065>068-078-088>093-311500-
SOUTHEAST NEBRASKA

CITY           SKY/WX    TMP DP  RH WIND       PRES   REMARKS
LINCOLN        SUNNY     67  56  67 VRB3      30.12F
OMAHA EPPLEY   MOSUNNY   68  58  70 SE3       30.11S
BEATRICE       MOSUNNY   65  57  75 CALM      30.13S
FALLS CITY     SUNNY     65  59  81 CALM      30.12R
NEBRASKA CITY  SUNNY     68  57  66 SW3       30.13R
PLATTSMOUTH    SUNNY     69  58  67 CALM      30.12S
$$

NEZ044-045-051>053-067-311500-
OMAHA AREA

CITY           SKY/WX    TMP DP  RH WIND       PRES   REMARKS
OMAHA EPPLEY   MOSUNNY   68  58  70 SE3       30.11S
BLAIR          SUNNY     67  56  68 CALM      30.11S
FREMONT        SUNNY     70  59  67 CALM      30.11F
MILLARD        SUNNY     70  58  65 CALM      30.11S
OFFUTT AFB     SUNNY     66  66 100 CALM      30.11S
PLATTSMOUTH    SUNNY     69  58  67 CALM      30.12S
WAHOO          FAIR      67  58  73 CALM      30.11S
$$



USA.gov is the U.S. government's official web portal to all federal, state and local government web resources and services.